[[{"header":{"parameterUnit":"m.s-1","parameterCategory":1,"la1":30.2991,"la2":30.254,"lo1":-89.0895,"lo2":-89.0444,"dy":0.0017,"dx":0.0017,"nx":28,"ny":28,"refTime":"2025-06-22T09:00:00:Z","depth":0,"parameterNumber":2,"parameterNumberName":"U-component_of_WINDS"},"data":[0,0,0,0,0,0,0,0,0,0,0,0,0,0,0,0,0,0,0,0,0,0,0,0,0,0,0,0,0,0,0,0,0,0,0,0,0,0,0,0,0,0,0,0,0,0,0,0,0,0,0,0,0,0,0,0,0,0,-2.7504,-2.7504,0,-2.7479,-2.7478,-2.7478,-2.7336,-2.7333,-2.733,-2.7326,-2.7305,-2.7308,-2.731,0,0,0,0,0,0,0,0,0,0,0,0,0,-2.7435,-2.7437,-2.7504,-2.7504,-2.7504,-2.7479,-2.7478,-2.7478,-2.7337,-2.7333,-2.7329,-2.7325,-2.7304,-2.7307,-2.7311,0,0,0,0,0,0,0,0,0,0,0,0,0,-2.7443,-2.7437,-2.7504,-2.743,-2.7423,-2.7479,-2.7478,-2.7478,-2.7338,-2.7333,-2.7328,-2.7323,-2.7303,-2.7307,-2.7311,-2.7437,0,0,-2.7323,-2.7325,0,0,0,0,0,0,0,0,-2.7443,-2.7446,-2.7441,-2.7435,-2.7428,-2.7405,-2.7446,-2.7465,-2.7339,-2.7371,-2.7326,-2.732,-2.7343,-2.7343,-2.735,-2.7436,-2.7435,-2.7323,-2.7326,-2.7327,-2.7328,0,0,0,0,0,0,0,-2.7442,-2.7446,-2.7494,-2.7441,-2.7433,-2.7399,-2.7395,-2.7449,-2.7386,-2.7367,-2.7357,-2.7356,-2.7338,-2.7347,-2.7348,-2.7435,-2.7323,-2.7327,-2.7329,-2.7331,-2.7623,-2.7628,0,0,0,0,0,0,-2.7451,-2.7446,-2.7495,-2.7493,-2.7423,-2.7405,-2.74,-2.7418,-2.7385,-2.7375,-2.736,-2.7349,-2.7342,-2.7344,-2.7347,-2.7491,-2.7327,-2.7331,-2.7333,-2.7618,-2.7624,-2.763,0,0,0,0,0,0,-2.7451,-2.7457,-2.7496,-2.7467,-2.7469,-2.7411,-2.7433,-2.742,-2.7428,-2.7379,-2.7368,-2.738,-2.7338,-2.7342,-2.7415,-2.7489,-2.7333,-2.7336,-2.7611,-2.762,-2.7627,-2.7783,0,0,0,0,0,0,-2.7449,-2.7458,-2.7504,-2.7469,-2.7471,-2.7564,-2.7437,-2.7423,-2.7434,-2.742,-2.7395,-2.7386,-2.7335,-2.741,-2.7419,-2.7491,-2.7339,-2.7604,-2.7615,-2.7625,-2.7771,-2.7795,-2.7816,0,0,0,0,0,-2.7447,-2.755,-2.7507,-2.7514,-2.7528,-2.7568,-2.757,-2.7508,-2.7441,-2.7488,-2.7456,-2.7386,-2.748,-2.7419,-2.7428,-2.7503,-2.7599,-2.7612,-2.7624,-2.7761,-2.779,-2.7816,0,0,0,0,0,0,-2.7598,-2.7544,-2.7496,-2.7591,-2.7585,-2.7544,-2.7601,-2.7542,-2.7556,-2.7542,-2.7466,-2.7461,-2.7546,-2.7532,-2.7465,-2.7623,-2.7528,-2.7542,-2.7629,-2.7657,-2.7679,-2.768,-2.7343,0,0,0,0,0,-2.7641,-2.7677,-2.7629,-2.7718,-2.7717,-2.766,-2.7676,-2.7628,-2.762,-2.7617,-2.7591,-2.7587,-2.7615,-2.7635,-2.7658,-2.7768,-2.7761,-2.7824,-2.7847,-2.7866,-2.7879,-2.7935,-2.7962,-2.767,-2.767,-2.767,0,0,-2.7733,-2.7708,-2.7736,-2.7747,-2.7737,-2.7777,-2.7659,-2.7706,-2.7735,-2.7625,-2.7691,-2.7673,-2.7663,-2.7756,-2.7795,-2.7746,-2.7958,-2.7881,-2.7897,-2.7899,-2.795,-2.7978,-2.8003,-2.7678,-2.7677,-2.7676,0,0,-2.7919,-2.7905,-2.7976,-2.7968,-2.7953,-2.7915,-2.7932,-2.7901,-2.7883,-2.7949,-2.7866,-2.7901,-2.7951,-2.7947,-2.7952,-2.8137,-2.8073,-2.8147,-2.8265,-2.8321,-2.8344,-2.8364,-2.8429,-2.8453,-2.816,-2.8161,-2.8161,0,-2.8035,-2.809,-2.802,-2.8072,-2.808,-2.798,-2.8051,-2.8048,-2.8043,-2.8051,-2.7996,-2.8056,-2.8043,-2.8132,-2.8177,-2.8185,-2.8202,-2.8149,-2.8346,-2.8365,-2.8383,-2.8444,-2.8469,-2.817,-2.8169,-2.8168,-2.8167,0,-2.8233,-2.8272,-2.8332,-2.8327,-2.8341,-2.8403,-2.8344,-2.8367,-2.8319,-2.8286,-2.8355,-2.8335,-2.8352,-2.837,-2.8325,-2.8454,-2.8423,-2.8359,-2.8261,-2.8421,-2.8477,-2.85,-2.8183,-2.8179,-2.8177,-2.8175,0,0,-2.8513,-2.8468,-2.8491,-2.8487,-2.8463,-2.8493,-2.8551,-2.8566,-2.8587,-2.8587,-2.8634,-2.8679,-2.8618,-2.8623,-2.8576,-2.8626,-2.8772,-2.8554,-2.8553,-2.8594,-2.8912,-2.896,-2.8988,-2.873,-2.8734,-2.8738,-2.8912,0,-2.869,-2.8783,-2.8722,-2.8827,-2.8862,-2.8768,-2.8818,-2.881,-2.8782,-2.8809,-2.8778,-2.881,-2.8728,-2.8731,-2.8775,-2.8745,-2.8835,-2.8732,-2.8773,-2.8775,-2.8776,-2.9017,-2.9068,-2.9234,-2.8934,-2.8938,-2.894,0,-2.8909,-2.8916,-2.9023,-2.8992,-2.9004,-2.905,-2.9058,-2.9086,-2.9075,-2.9051,-2.9057,-2.8997,-2.9053,-2.8958,-2.9033,-2.8965,-2.8978,-2.8966,-2.8971,-2.8971,-2.8866,-2.9023,-2.9285,-2.931,-2.8974,-2.8972,-2.8969,0,-2.91,-2.9138,-2.9206,-2.9206,-2.9171,-2.9206,-2.9193,-2.9177,-2.919,-2.9198,-2.9205,-2.9221,-2.923,-2.9244,-2.919,-2.9126,-2.9273,-2.9174,-2.9254,-2.9256,-2.9288,-2.9287,-2.9555,-2.93,-2.93,-2.9299,-2.9299,0,-2.9304,-2.9373,-2.9291,-2.9333,-2.9408,-2.9338,-2.9414,-2.9392,-2.9379,-2.9415,-2.9336,-2.9373,-2.9301,-2.9331,-2.929,-2.9358,-2.9363,-2.9345,-2.9333,-2.9351,-2.9354,-2.9358,-2.9345,-2.9306,-2.9304,-2.9303,-2.9302,0,-2.9529,-2.9478,-2.9545,-2.9507,-2.9499,-2.9556,-2.9523,-2.9561,-2.9527,-2.9575,-2.9582,-2.953,-2.9561,-2.9509,-2.9534,-2.9507,-2.9601,-2.9572,-2.9604,-2.9595,-2.9678,-2.967,-2.9957,-2.9991,-2.9717,-2.9719,-2.9722,0,-2.9662,-2.9712,-2.9678,-2.9696,-2.9687,-2.9718,-2.973,-2.9664,-2.968,-2.9671,-2.971,-2.9734,-2.9749,-2.9803,-2.9768,-2.9787,-2.9757,-2.9857,-2.976,-2.9776,-2.9757,-2.9754,-2.9758,-2.9876,-2.988,-2.9882,-2.9885,0,-2.9901,-2.9873,-2.9892,-2.9903,-2.9918,-2.9924,-2.9924,-2.9944,-2.9874,-2.9896,-2.9925,-2.9937,-2.9962,-2.9987,-2.9997,-2.9986,-2.9924,-2.9916,-2.9935,-2.9953,-2.9969,-2.996,-2.9657,-2.9909,-2.9906,-2.9905,-2.9903,-2.9902,-3.0083,-3.0123,-3.0105,-3.0129,-3.0121,-3.0123,-3.0156,-3.0126,-3.0149,-3.0162,-3.0122,-3.0161,-3.0149,-3.0156,-3.0152,-3.0182,-3.0138,-3.0167,-3.0174,-3.0181,-3.0193,-2.9965,-3.0184,-3.0183,-3.0183,-3.0182,-3.0181,0,-3.0317,-3.03,-3.0323,-3.0324,-3.0344,-3.0282,-3.0279,-3.03,-3.0334,-3.0327,-3.0344,-3.0378,-3.0401,-3.0368,-3.0386,-3.0417,-3.0389,-3.0424,-3.042,-3.0418,-3.0232,-3.0213,-3.0446,-3.0446,-3.0446,-3.0446,-3.0446,-3.0446,-3.0441,-3.0504,-3.0474,-3.0534,-3.0517,-3.0552,-3.0556,-3.0557,-3.0551,-3.0592,-3.061,-3.0588,-3.0571,-3.0587,-3.0606,-3.0596,-3.0606,-3.0651,-3.0631,-3.0457,-3.0431,-3.0407,-3.0388,-3.0654,-3.0654,-3.0813,-3.0815,-3.0816]},{"header":{"parameterUnit":"m.s-1","parameterCategory":1,"la1":30.2991,"la2":30.254,"lo1":-89.0895,"lo2":-89.0444,"dy":0.0017,"dx":0.0017,"nx":28,"ny":28,"refTime":"2025-06-22T09:00:00:Z","depth":0,"parameterNumber":3,"parameterNumberName":"V-component_of_WINDS"},"data":[0,0,0,0,0,0,0,0,0,0,0,0,0,0,0,0,0,0,0,0,0,0,0,0,0,0,0,0,0,0,0,0,0,0,0,0,0,0,0,0,0,0,0,0,0,0,0,0,0,0,0,0,0,0,0,0,0,0,0.0682,0.0681,0,0.0569,0.0568,0.0567,0.0435,0.0433,0.043,0.0429,0.0315,0.0314,0.0313,0,0,0,0,0,0,0,0,0,0,0,0,0,0.0787,0.0786,0.0682,0.0681,0.068,0.057,0.0568,0.0566,0.0435,0.0432,0.043,0.0428,0.0316,0.0314,0.0313,0,0,0,0,0,0,0,0,0,0,0,0,0,0.0715,0.0785,0.0683,0.0601,0.0592,0.057,0.0568,0.0566,0.0435,0.0432,0.0429,0.0427,0.0316,0.0314,0.0313,0.0363,0,0,0.0308,0.0307,0,0,0,0,0,0,0,0,0.0719,0.0711,0.0614,0.0606,0.0597,0.0513,0.0563,0.0498,0.0436,0.0495,0.0429,0.0425,0.0384,0.0376,0.0362,0.0358,0.0353,0.0307,0.0306,0.0306,0.0305,0,0,0,0,0,0,0,0.0724,0.0715,0.0638,0.0613,0.0602,0.057,0.0557,0.055,0.0458,0.049,0.048,0.0468,0.0378,0.0364,0.0358,0.0351,0.0307,0.0306,0.0305,0.0304,0.0385,0.0388,0,0,0,0,0,0,0.0741,0.072,0.0641,0.0634,0.0652,0.0571,0.0556,0.0543,0.0457,0.0441,0.0471,0.0462,0.0368,0.036,0.0354,0.0409,0.0306,0.0304,0.0303,0.0382,0.0386,0.0389,0,0,0,0,0,0,0.0744,0.0735,0.0646,0.0674,0.0661,0.0572,0.0559,0.0542,0.0527,0.0443,0.0426,0.0473,0.0365,0.0356,0.0362,0.0403,0.0303,0.0302,0.0378,0.0383,0.0388,0.0519,0,0,0,0,0,0,0.0747,0.0737,0.0755,0.0676,0.066,0.0656,0.0561,0.0542,0.0525,0.0513,0.044,0.0426,0.0362,0.0365,0.036,0.0399,0.03,0.0374,0.038,0.0386,0.0511,0.0528,0.0543,0,0,0,0,0,0.0752,0.0796,0.0756,0.0747,0.0679,0.0658,0.0649,0.0575,0.0528,0.0546,0.0492,0.0428,0.0399,0.0367,0.036,0.0399,0.0371,0.0379,0.0386,0.0504,0.0525,0.0542,0,0,0,0,0,0,0.0882,0.0784,0.0739,0.0759,0.0718,0.0636,0.0656,0.0599,0.057,0.056,0.047,0.0455,0.0472,0.0435,0.0402,0.0444,0.0376,0.0382,0.0468,0.0487,0.0503,0.0513,0.0299,0,0,0,0,0,0.0913,0.0904,0.0818,0.0845,0.0826,0.0745,0.0733,0.0679,0.0633,0.0616,0.0562,0.0521,0.0502,0.0492,0.047,0.0504,0.0488,0.0528,0.0544,0.0557,0.0564,0.0583,0.06,0.0413,0.0413,0.0412,0,0,0.0978,0.0923,0.0922,0.087,0.0831,0.0825,0.0731,0.0727,0.0722,0.0615,0.0618,0.0578,0.0525,0.0547,0.0553,0.0517,0.0612,0.0566,0.0577,0.0577,0.0592,0.061,0.0626,0.0417,0.0417,0.0416,0,0,0.1093,0.1049,0.1067,0.1031,0.0974,0.092,0.0925,0.0851,0.082,0.0822,0.0742,0.0734,0.0704,0.0671,0.0651,0.0754,0.0695,0.0749,0.0833,0.0852,0.0867,0.088,0.092,0.0935,0.0756,0.0757,0.0757,0,0.118,0.1166,0.1084,0.1086,0.1066,0.0968,0.0987,0.0956,0.0896,0.0885,0.0844,0.0806,0.0763,0.0777,0.0803,0.0788,0.0792,0.0758,0.0871,0.0883,0.0894,0.0931,0.0946,0.0764,0.0763,0.0762,0.0762,0,0.1278,0.127,0.1291,0.1236,0.1218,0.1229,0.115,0.1142,0.1089,0.104,0.1044,0.099,0.0957,0.0955,0.0904,0.0963,0.0942,0.0888,0.0817,0.092,0.0954,0.0967,0.0774,0.0772,0.0769,0.0768,0,0,0.1473,0.1373,0.1382,0.1357,0.1288,0.128,0.1287,0.1254,0.1251,0.1212,0.1218,0.1195,0.1144,0.1121,0.1065,0.1081,0.1171,0.1025,0.1022,0.1057,0.1236,0.128,0.1297,0.113,0.1132,0.1134,0.1241,0,0.1578,0.1584,0.1511,0.1537,0.153,0.1437,0.1443,0.1402,0.1356,0.1344,0.1293,0.128,0.1212,0.1198,0.121,0.1158,0.1206,0.1148,0.1137,0.1138,0.1156,0.1314,0.136,0.1464,0.1253,0.1255,0.1257,0,0.1701,0.1671,0.1697,0.1628,0.1622,0.1629,0.1595,0.1583,0.1536,0.1501,0.1476,0.1412,0.1416,0.1347,0.1352,0.1315,0.1305,0.1279,0.1281,0.128,0.1206,0.1321,0.1495,0.1512,0.1276,0.1275,0.1273,0,0.1846,0.181,0.1822,0.1803,0.1722,0.173,0.1697,0.1646,0.1631,0.1601,0.1591,0.1562,0.1547,0.1526,0.1457,0.1412,0.1471,0.1396,0.1445,0.1447,0.1464,0.1465,0.1643,0.1453,0.1453,0.1452,0.1452,0,0.1972,0.1993,0.1886,0.1894,0.1915,0.183,0.1853,0.1811,0.1767,0.1766,0.1682,0.1684,0.159,0.1581,0.1527,0.1541,0.1534,0.1508,0.1494,0.1518,0.1522,0.1513,0.1505,0.1456,0.1455,0.1455,0.1454,0,0.2138,0.2067,0.2074,0.1997,0.1979,0.1998,0.1933,0.1937,0.1886,0.1886,0.1881,0.1801,0.1787,0.1715,0.1683,0.1646,0.1681,0.165,0.1698,0.1689,0.1744,0.1741,0.1925,0.1946,0.174,0.1742,0.1744,0,0.2225,0.2239,0.2164,0.2157,0.2128,0.2118,0.2103,0.202,0.2009,0.1956,0.1968,0.1947,0.1925,0.1907,0.1847,0.1823,0.1793,0.1859,0.1789,0.1813,0.1798,0.18,0.1803,0.1876,0.1878,0.188,0.1882,0,0.2389,0.2353,0.2335,0.2305,0.229,0.2262,0.223,0.2229,0.2137,0.2129,0.2113,0.2097,0.2064,0.2045,0.2011,0.1978,0.1917,0.1904,0.1915,0.1941,0.197,0.1959,0.1743,0.1901,0.1899,0.1898,0.1897,0.1896,0.252,0.2529,0.2479,0.2462,0.2428,0.24,0.2402,0.2351,0.2336,0.2304,0.2255,0.2247,0.22,0.2148,0.212,0.2113,0.2077,0.2092,0.2096,0.2102,0.2116,0.1968,0.2106,0.2105,0.2105,0.2104,0.2104,0,0.2683,0.2646,0.2631,0.2588,0.2575,0.2516,0.2477,0.2471,0.2465,0.2426,0.2407,0.239,0.2371,0.231,0.2285,0.2292,0.2263,0.2289,0.2289,0.2283,0.2147,0.2142,0.2312,0.2312,0.2312,0.2312,0.2312,0.2312,0.2766,0.2779,0.2738,0.2735,0.2697,0.2688,0.2671,0.2646,0.2615,0.26,0.2584,0.2543,0.2496,0.2468,0.2449,0.2431,0.2428,0.2463,0.2437,0.2312,0.2292,0.2273,0.2268,0.2462,0.2463,0.2574,0.2575,0.2576]}]]